TimePST,TemperatureF,Dew PointF,Humidity,Sea Level PressureIn,VisibilityMPH,Wind Direction,Wind SpeedMPH,Gust SpeedMPH,PrecipitationIn,Events,Conditions,WindDirDegrees,DateUTC
12:23 AM,50.0,46.4,87,29.64,5.0,South,8.1,20.7,0.15,Rain,Rain,170,2012-11-19 08:23:00
12:53 AM,50.0,46.9,89,29.65,5.0,South,12.7,25.3,0.24,Rain,Rain,190,2012-11-19 08:53:00
1:53 AM,50.0,46.9,89,29.63,4.0,South,9.2,-,0.20,Rain,Heavy Rain,180,2012-11-19 09:53:00
2:53 AM,51.1,46.9,86,29.64,5.0,South,12.7,23.0,0.23,Rain,Rain,190,2012-11-19 10:53:00
3:53 AM,51.1,48.0,89,29.61,4.0,South,13.8,29.9,0.21,Rain,Rain,190,2012-11-19 11:53:00
4:53 AM,52.0,48.0,86,29.59,7.0,South,12.7,25.3,0.11,Rain,Light Rain,180,2012-11-19 12:53:00
5:53 AM,52.0,48.0,86,29.57,7.0,South,12.7,25.3,0.13,Rain,Rain,190,2012-11-19 13:53:00
6:53 AM,53.1,48.0,83,29.56,10.0,South,11.5,26.5,0.07,Rain,Light Rain,190,2012-11-19 14:53:00
7:53 AM,54.0,48.0,80,29.53,10.0,South,16.1,31.1,0.05,Rain,Light Rain,190,2012-11-19 15:53:00
8:53 AM,54.0,48.0,80,29.54,7.0,South,11.5,23.0,0.09,Rain,Rain,190,2012-11-19 16:53:00
9:53 AM,54.0,48.0,80,29.54,7.0,South,15.0,27.6,0.14,Rain,Rain,180,2012-11-19 17:53:00
10:53 AM,55.0,48.9,80,29.52,6.0,South,18.4,29.9,0.11,Rain,Rain,190,2012-11-19 18:53:00
11:53 AM,54.0,50.0,86,29.51,4.0,South,13.8,34.5,0.20,Rain,Rain,180,2012-11-19 19:53:00
12:53 PM,54.0,51.1,90,29.51,4.0,South,15.0,34.5,0.21,Rain,Rain,190,2012-11-19 20:53:00
1:25 PM,53.6,51.8,94,29.52,2.0,South,13.8,33.4,0.17,Rain,Heavy Rain,180,2012-11-19 21:25:00
1:39 PM,53.6,51.8,94,29.51,3.0,South,16.1,34.5,0.23,Rain,Rain,180,2012-11-19 21:39:00
1:53 PM,54.0,51.1,90,29.52,3.0,South,15.0,32.2,0.28,Rain,Heavy Rain,180,2012-11-19 21:53:00
2:09 PM,53.6,51.8,94,29.58,2.0,WSW,9.2,23.0,0.09,Rain,Heavy Rain,240,2012-11-19 22:09:00
2:12 PM,53.6,51.8,94,29.58,1.8,West,8.1,21.9,0.11,Rain,Heavy Rain,260,2012-11-19 22:12:00
2:25 PM,55.4,51.8,88,29.54,3.0,SE,9.2,-,0.17,Rain,Light Rain,130,2012-11-19 22:25:00
2:53 PM,54.0,51.1,90,29.53,10.0,South,10.4,21.9,0.17,,Overcast,180,2012-11-19 22:53:00
3:53 PM,54.0,48.9,83,29.56,10.0,South,6.9,-,0.01,Rain,Light Rain,180,2012-11-19 23:53:00
4:53 PM,53.1,50.0,89,29.60,8.0,Variable,3.5,-,0.07,Rain,Light Rain,0,2012-11-20 00:53:00
5:53 PM,53.1,50.0,89,29.61,10.0,South,3.5,-,0.02,Rain,Light Rain,190,2012-11-20 01:53:00
6:53 PM,53.1,50.0,89,29.62,10.0,SSW,4.6,-,0.02,,Overcast,200,2012-11-20 02:53:00
7:53 PM,53.1,50.0,89,29.65,10.0,Calm,Calm,-,0.00,,Overcast,0,2012-11-20 03:53:00
8:25 PM,51.8,48.2,88,29.65,10.0,South,6.9,-,N/A,,Mostly Cloudy,170,2012-11-20 04:25:00
8:53 PM,52.0,48.9,89,29.69,10.0,South,4.6,-,0.01,Rain,Light Rain,190,2012-11-20 04:53:00
9:53 PM,51.1,48.9,92,29.70,4.0,South,4.6,-,0.11,Rain,Heavy Rain,170,2012-11-20 05:53:00
10:10 PM,51.8,48.2,88,29.71,4.0,South,3.5,-,0.07,Rain,Rain,170,2012-11-20 06:10:00
10:23 PM,51.8,48.2,88,29.71,10.0,SE,5.8,-,0.07,Rain,Light Rain,140,2012-11-20 06:23:00
10:33 PM,51.8,48.2,88,29.71,10.0,SSE,3.5,-,0.08,Rain,Light Rain,160,2012-11-20 06:33:00
10:53 PM,51.1,48.9,92,29.72,6.0,SSE,4.6,-,0.10,Rain,Rain,160,2012-11-20 06:53:00
11:39 PM,50.0,48.2,94,29.72,10.0,Calm,Calm,-,0.01,,Mostly Cloudy,0,2012-11-20 07:39:00
11:53 PM,51.1,46.9,86,29.73,10.0,Calm,Calm,-,0.01,,Scattered Clouds,0,2012-11-20 07:53:00